| time (UTC) | temp C | wind direction | speed KPH | gust KPH | rain 1hr cm | rain 24hr cm | rain mn cm | humidity % | barometer mb |
| 20260504013050 | 8 | 269 | 0.0 | 0.0 | 0.00 | 0.08 | 0.08 | 75 | 1007.7 |
| 20260504011543 | 8 | 269 | 0.0 | 0.0 | 0.00 | 0.08 | 0.08 | 75 | 1007.7 |
| 20260504010052 | 8 | 269 | 0.0 | 3.2 | 0.00 | 0.08 | 0.08 | 74 | 1007.6 |
| 20260504004545 | 8 | 269 | 0.0 | 0.0 | 0.00 | 0.08 | 0.08 | 74 | 1007.5 |
| 20260504003039 | 8 | 269 | 1.6 | 4.8 | 0.00 | 0.08 | 0.08 | 72 | 1007.8 |
| 20260504001540 | 9 | 269 | 1.6 | 9.7 | 0.00 | 0.08 | 0.08 | 71 | 1008.0 |
| 20260504000038 | 9 | 271 | 3.2 | 11.3 | 0.00 | 0.08 | 0.08 | 71 | 1007.9 |
| 20260503234540 | 8 | 277 | 4.8 | 14.5 | 0.00 | 0.08 | 0.08 | 71 | 1008.1 |
| 20260503233036 | 8 | 233 | 3.2 | 16.1 | 0.00 | 0.08 | 0.08 | 71 | 1008.2 |
| 20260503231535 | 8 | 259 | 3.2 | 9.7 | 0.00 | 0.08 | 0.08 | 72 | 1008.3 |
| 20260503230045 | 8 | 225 | 3.2 | 16.1 | 0.03 | 0.08 | 0.08 | 72 | 1008.3 |
| 20260503224533 | 8 | 236 | 3.2 | 12.9 | 0.05 | 0.08 | 0.08 | 73 | 1008.5 |
| 20260503223033 | 8 | 251 | 3.2 | 11.3 | 0.05 | 0.08 | 0.08 | 73 | 1008.5 |
| 20260503221534 | 7 | 269 | 1.6 | 12.9 | 0.08 | 0.08 | 0.08 | 73 | 1008.5 |
| 20260503220036 | 8 | 275 | 3.2 | 12.9 | 0.05 | 0.05 | 0.05 | 71 | 1008.8 |
| 20260503214542 | 8 | 264 | 8.0 | 20.9 | 0.05 | 0.05 | 0.05 | 69 | 1009.0 |
| 20260503213033 | 9 | 265 | 3.2 | 17.7 | 0.03 | 0.03 | 0.03 | 66 | 1008.8 |
| 20260503211529 | 10 | 259 | 6.4 | 20.9 | 0.00 | 0.00 | 0.00 | 61 | 1008.6 |
| 20260503210027 | 11 | 281 | 3.2 | 12.9 | 0.00 | 0.00 | 0.00 | 52 | 1008.3 |
| 20260503204529 | 11 | 261 | 0.0 | 6.4 | 0.00 | 0.00 | 0.00 | 48 | 1008.2 |
| 20260503203026 | 11 | 118 | 1.6 | 4.8 | 0.00 | 0.00 | 0.00 | 47 | 1008.3 |
| 20260503201524 | 11 | 118 | 3.2 | 8.0 | 0.00 | 0.00 | 0.00 | 47 | 1008.1 |
| 20260503200024 | 11 | 142 | 1.6 | 14.5 | 0.00 | 0.00 | 0.00 | 43 | 1008.7 |
| 20260503194523 | 12 | 155 | 3.2 | 12.9 | 0.00 | 0.00 | 0.00 | 41 | 1008.5 |
| 20260503193022 | 12 | 207 | 3.2 | 9.7 | 0.00 | 0.00 | 0.00 | 41 | 1008.7 |
| 20260503191518 | 11 | 186 | 4.8 | 19.3 | 0.00 | 0.00 | 0.00 | 39 | 1009.4 |
| 20260503190017 | 12 | 184 | 3.2 | 11.3 | 0.00 | 0.00 | 0.00 | 37 | 1009.5 |
| 20260503184513 | 12 | 196 | 3.2 | 9.7 | 0.00 | 0.00 | 0.00 | 37 | 1009.7 |
| 20260503183011 | 11 | 213 | 1.6 | 11.3 | 0.00 | 0.00 | 0.00 | 37 | 1009.9 |
| 20260503181523 | 12 | 192 | 3.2 | 12.9 | 0.00 | 0.00 | 0.00 | 38 | 1010.3 |
| 20260503180016 | 12 | 228 | 3.2 | 14.5 | 0.00 | 0.00 | 0.00 | 38 | 1010.5 |
| 20260503174507 | 12 | 136 | 4.8 | 14.5 | 0.00 | 0.00 | 0.00 | 38 | 1010.5 |
| 20260503173004 | 12 | 214 | 3.2 | 17.7 | 0.00 | 0.00 | 0.00 | 37 | 1010.8 |
| 20260503171505 | 12 | 171 | 3.2 | 14.5 | 0.00 | 0.00 | 0.00 | 37 | 1011.0 |
| 20260503081528 | -2 | 297 | 0.0 | 0.0 | 0.00 | 0.00 | 0.00 | 70 | 1013.7 |
| 20260503071524 | -1 | 297 | 0.0 | 0.0 | 0.00 | 0.00 | 0.00 | 69 | 1013.7 |
| 20260503054519 | -1 | 297 | 0.0 | 0.0 | 0.00 | 0.00 | 0.00 | 70 | 1014.3 |
| 20260503053017 | -1 | 297 | 0.0 | 0.0 | 0.00 | 0.00 | 0.00 | 70 | 1014.3 |
| 20260503051511 | -1 | 297 | 0.0 | 0.0 | 0.00 | 0.00 | 0.00 | 70 | 1014.4 |
| 20260503050010 | 0 | 297 | 0.0 | 0.0 | 0.00 | 0.00 | 0.00 | 69 | 1014.4 |
| 20260503044507 | 0 | 297 | 0.0 | 0.0 | 0.00 | 0.00 | 0.00 | 69 | 1014.5 |
| 20260503043005 | 0 | 297 | 0.0 | 0.0 | 0.00 | 0.00 | 0.00 | 68 | 1014.6 |
| 20260503041504 | 0 | 297 | 0.0 | 1.6 | 0.00 | 0.00 | 0.00 | 69 | 1014.6 |
| 20260503040101 | 0 | 297 | 0.0 | 0.0 | 0.00 | 0.00 | 0.00 | 69 | 1014.6 |
| 20260503034601 | 0 | 297 | 0.0 | 0.0 | 0.00 | 0.00 | 0.00 | 68 | 1014.6 |
| 20260503033117 | 0 | 297 | 0.0 | 0.0 | 0.00 | 0.00 | 0.00 | 68 | 1014.6 |
| 20260503031558 | 0 | 297 | 0.0 | 0.0 | 0.00 | 0.00 | 0.00 | 67 | 1014.6 |
| 20260503030107 | 0 | 297 | 0.0 | 0.0 | 0.00 | 0.00 | 0.00 | 67 | 1014.6 |
| 20260503024602 | 0 | 297 | 0.0 | 0.0 | 0.00 | 0.00 | 0.00 | 66 | 1014.7 |
| 20260503023057 | 0 | 297 | 0.0 | 0.0 | 0.00 | 0.00 | 0.00 | 65 | 1014.8 |
| 20260503021604 | 1 | 297 | 0.0 | 0.0 | 0.00 | 0.00 | 0.00 | 63 | 1014.9 |
| 20260503020106 | 1 | 297 | 0.0 | 0.0 | 0.00 | 0.00 | 0.00 | 62 | 1014.8 |
| 20260503014555 | 1 | 297 | 0.0 | 0.0 | 0.00 | 0.00 | 0.00 | 60 | 1014.7 |